Погода Жамбейты

Погода Жамбейты : погода сейчас, прогноз погоды и архив. Всё, что Вы хотите узнать о погоде Жамбейты!

Хотите узнать прогноз погоды Жамбейты? Тогда Вам сюда: Погода Жамбейты

Поиск расширенной информации на нашем сайте:

Полезная информация: Фантастика, мистика, ужасы, лучшие драмы смотреть онлайн без регистрации

Другие новости

Новости СМИ2

Главная страница сайта

Новости сайта

02.10.2013

Напоминаем, что на нашем новом сайте вы можете получить высокодетализированные прогнозы погоды по пунктам России, СНГ и мира (включающие важные для авиации метеовеличины, такие как направление и скорость ветра, видимость, явления погоды, количество и форма облачности, нижняя и верхняя граница облачности), а также ознакомиться с разнообразными материалами по авиационной метеорологии и подборкой полезных ссылок на эту тему.

Сайт Метеоцентр.Азия посвящён разработке технологий оптимизации авиаметеорологического обслуживания, включая проектирование и перспективное создание нескольких автоматизированных авиаметеорологических систем:
- система выпуска высокодетальных прогностических карт явлений погоды для нижнего воздушного пространства по России и ближнему зарубежью;
- система верификации прогнозов TAF (выпускаемых синоптиками официальных АМСГ РФ и ближнего зарубежья) и AUTOTAF (выпускаемых сайтом Метеоцентр.Азия) - выявление ошибок, онлайн-сопоставление с фактической погодой METAR, автоматическое внесение коррективов в прогнозы при резком отклонении фактической погоды от прогноза, подсчёт оправдываемости прогнозов по элементам и в целом;
- система обработки, анализа и отображения авиаметеорологической информации для применения провайдерами метеорологической информации.

Рекомендуем: печать на баннере, оригинальная печать на баннере

Погода Жамбейты - сегодня

Время (UTC), дата Ветер
(°,м/с) 
Видим.   Явления Облачность Т
(°С)
Тd
(°С)
f(%) Тe
(°С)
Pmin
(гПа)
dP
(гПа)
Po
(мм)
O2
(г/м3)
Тmin Tmax R s Состояние
почвы
15 21.06.17 тихо ()   20000 м    ясно 
+28.1 +7.3 27 +28  1003.8  -0.6  750  273    +28.9       
18 21.06.17 180 (Ю) н/о    ясно 
+21.2 +8.2 43 +21  1004  0.1  750  279    +28.9       
21 21.06.17 180 (Ю) н/о    ясно 
+16.9 +8 56 +18  1003.9  -0.1  750  283           
00 22.06.17 230 (ЮЗ) н/о    3/0 средняя 
[Ac cast]
+14.3 +8.3 67 +14  1003.5  -0.5  750  286           
03 22.06.17 180 (Ю) 20000 м    6/6 600 м кучево-дожд. 
[Cb cap]
+20.6 +8.9 47 +21  1003.6  0.2  751  280           
06 22.06.17 230 (ЮЗ) 20000 м    6/0 средняя 
[Ac lent]
+25.9 +9.4 35 +26  1003.5  750  274  +14         
09 22.06.17 230 (ЮЗ) 20000 м    6/6 600 м кучево-дожд. 
[Cb cap]
+29.5 +7.1 24 +30  1002.4  -1.1  749  271           
12 22.06.17 290 (З) 20000 м    9/9 600 м кучево-дожд. 
[Cb cap]
+29 +10.4 31 +31  1000.9  -1.5  748  271           
15 22.06.17 тихо ()   20000 м  {ливн. осадки}  6/6 600 м кучево-дожд. 
[Cb cap]
+23.5 +17.6 69 +37  1002.7  1.8  749  274    +31     
18 22.06.17 320 (СЗ) н/о  {ливн. осадки}  5/5 600 м кучево-дожд. 
[Cb cap]
+17.8 +15.6 87 +29  1004.3  1.5  751  281    +3.1     
21 22.06.17 320 (СЗ) н/о    9/9 600 м кучево-дожд. 
[Cb cap]
+16.9 +15 89 +27  1005.5  1.2  751  282           
00 23.06.17 320 (СЗ) н/о    9/9 600 м кучево-дожд. 
[Cb cap]
+14.5 +12.7 89 +20  1006.8  1.2  752  285           
03 23.06.17 320 (СЗ) 20000 м    8/0 верхняя 
[Ci sp]
+16.4 +11.2 71 +17  1007.7  0.9             
06 23.06.17 320 (СЗ) 20000 м    1/0 верхняя 
[Ci sp]
+22.7 +2.1 26 +23  1008.5  0.9  754  280  +14.1         
09 23.06.17 320 (СЗ) 20000 м    3/1 1000 м средняя, верхняя 
[Cu med, cong|Ac lent|Ci fib]
+24.2 +3.5 26 +24  1008.7  0.2  754  279           
12 23.06.17 360 (С) 20000 м    3/1 1000 м средняя, верхняя 
[Cu med, cong|Ac lent|Ci fib]
+25 +4.4 26 +25  1008.5  -0.2  754  278           
15 23.06.17 340 (С) 20000 м    5/1 1000 м средняя, верхняя 
[Cu med, cong|Ac lent|Ci fib]
+23 +6.1 34 +23  1009  0.5  754  279    +25.9       
18 23.06.17 320 (СЗ) н/о    ясно 
+15.2 +6.8 57 +16  1010.6  1.5  755  287    +25.9       
21 23.06.17 320 (СЗ) н/о    ясно 
+12.2 +6 66 +13  1010.5  -0.1  755  290           
00 24.06.17 320 (СЗ) н/о    6/0 средняя 
[Ac trans]
+11.8 +6 68 +12  1010.1  -0.4  755  291           
03 24.06.17 230 (ЮЗ) 20000 м    4/0 средняя 
[Ac lent]
+17 +7.4 53 +17  1009.9  -0.2  755  285           
06 24.06.17 270 (З) 20000 м    9/0 средняя, верхняя 
[Ac lent|Ci fib]
+24.9 +4.2 26 +25  1008.6  -1.2  754  278  +11.8         
09 24.06.17 230 (ЮЗ) 20000 м    9/9 600 м кучево-дожд. 
[Cb cap]
+27.6 +6.1 25 +28  1006.8  -1.8  752  274           
12 24.06.17 160 (Ю) 20000 м    9/9 600 м кучево-дожд. 
[Cb cap]
+28 +5.2 23 +28  1004.6  -2.1  751  274           
15 24.06.17 160 (Ю) 15-16{19}  20000 м    10/10 600 м кучево-дожд. 
[Cb cap]
+26.6 +5.8 26 +27  1002.3  -2.4  749  274    +29.3       
Время (UTC), дата Ветер
(°,м/с) 
Видим.   Явления Облачность Т
(°С)
Тd
(°С)
f(%) Тe
(°С)
Pmin
(гПа)
dP
(гПа)
Po
(мм)
O2
(г/м3)
Тmin Tmax R s Состояние
почвы

Для получения пояснительной информации подведите курсор к названию столбца.

ПОГОДА Жамбейты - архив

Всё, что Вы хотите узнать о погоде Жамбейты - удобно и подробно!

Выберите нужную дату (начиная с 1 января 2015* года) и нажмите кнопку "Найти".
Будут отображены архивные сводки погоды по пункту Жамбейты, начиная с указанной даты.


Отображать данные в формате CSV (для использования в таблицах Excel)


Внимание! Наш архив погоды предназначен исключительно для личного некоммерческого использования в познавательных целях. Если Вам необходимы официальные справки о состоянии погоды (для производственных, юридических, коммерческих и т.п. целей), обращайтесь в органы Росгидромета.

*Примечание: данная дата относится к архиву по метеостанциям СССР (Россия, СНГ, Балтия).
Архив по метеостанциям Зарубежной Европы и Азии (кроме Китая) хранится 10 дней, по другим регионам земного шара (Китай, Африка, Америка, Австралия, Океания) - 1 день.

Жамбейты - район местоположения метеостанции


Название, широта, долгота, высота метеостанции:
Жамбейты 50.2°ш. 52.6°д. 32 м над ур. моря [Казахстан]

Дополнительная информация

В oтличие oт бoльшинства пoгoдных сайтoв мы публикуем пoдрoбную метеoинфoрмацию в детальнoм прoфессиoнальнoм фoрмате.

Характеристики температуры и влажнoсти вoздуха измеряются на высoте 2 м в тени вдали oт зданий и деревьев.
Скoрoсть ветра измеряется на высoте 10 м (на урoвне рoста челoвека скoрoсть ветра ниже в 1.5-2 раза). Если метеoстанция нахoдится в гoрoде или в лесу, тo скoрoсть ветра занижена на 2-4 м/с пo сравнению с oткрытым местoм. Скoрoсть ветра над акватoриями крупных рек и oзёр, а также на вершинах хoлмoв на 2-5 м/с выше, чем в oбычных услoвиях.
Атмoсфернoе давление в разных тoчках местнoсти мoжет значительнo oтличаться oт давления на метеoстанции, в зависимoсти oт услoвий рельефа (при пoдъёме на 10 м давление пoнижается примернo на 1 мм рт.ст.).